Watertown, SD

7:04 AM CST on December 15, 2019 (GMT -0600)
Watertown Municipal

Weather History for KATY - November, 2019

Change the Weather History Date:

Wednesday, November 13, 2019

  Actual Average Record
Temperature  
Mean Temperature 24 °F 31 °F  
Max Temperature 34 °F 41 °F 69 °F (1999)
Min Temperature 15 °F 22 °F -9 °F (1986)
Degree Days  
Heating Degree Days 40    
Month to date heating degree days 522  
Since 1 July heating degree days 1422  
Cooling Degree Days 0    
Month to date cooling degree days 0  
Year to date cooling degree days 466  
Moisture  
Dew Point 22 °F    
Average Humidity 82    
Maximum Humidity 96    
Minimum Humidity 59    
Precipitation  
Precipitation T in 0.02 in 0.50 in (1922)
Month to date precipitation 0.06 0.38  
Year to date precipitation 31.81 21.17  
Snow  
Snow T in 0.20 in 4.00 in (1922)
Month to date snowfall 0.6 1.5  
Since 1 July snowfall 2.1 3.2  
Snow Depth 1.00 in    
Sea Level Pressure  
Sea Level Pressure 29.96 in    
Wind  
Wind Speed 7 mph ()    
Max Wind Speed 20 mph    
Max Gust Speed 25 mph    
Visibility 8.5 miles    
Events Snow    
T = Trace of Precipitation, MM = Missing Value Source: Averaged Metar Reports

Daily Weather History Graph

Daily Weather History Graph

Search for Another Location

Airport or City:

Astronomy

Nov. 13, 2019 Rise Set
Actual Time 7:23 AM CST 5:02 PM CST
Civil Twilight 6:51 AM CST 5:33 PM CST
Nautical Twilight 6:16 AM CST 6:09 PM CST
Astronomical Twilight 5:41 AM CST 6:43 PM CST
Moon 6:04 PM CST (11/13) 8:18 AM CST (11/13)
Length of Visible Light 10h 42m
Length of Day
9h 39m
Full, 99% of the Moon is Illuminated
Nov 13
Full
Nov 19
Last Quarter
Nov 26
New
Dec 4
First Quarter
Dec 11
Full

Hourly Weather History & Observations

Time (CST) Temp. Windchill Dew Point Humidity Pressure Visibility Wind Dir Wind Speed Gust Speed Precip Events Conditions
12:53 AM 27.0 °F 21.6 °F 23.0 °F 85% 29.83 in 10.0 mi South 4.6 mph - N/A   Overcast
1:53 AM 26.1 °F 19.4 °F 21.9 °F 84% 29.82 in 10.0 mi South 5.8 mph - N/A   Mostly Cloudy
2:53 AM 23.0 °F 18.4 °F 21.0 °F 92% 29.83 in 10.0 mi SW 3.5 mph - N/A   Mostly Cloudy
3:53 AM 23.0 °F 17.0 °F 21.0 °F 92% 29.84 in 10.0 mi SSW 4.6 mph - N/A   Overcast
4:53 AM 25.0 °F - 23.0 °F 92% 29.82 in 10.0 mi Calm Calm - N/A   Overcast
5:53 AM 25.0 °F 18.1 °F 21.9 °F 88% 29.86 in 10.0 mi NW 5.8 mph - N/A   Overcast
6:16 AM 26.1 °F 20.5 °F 24.1 °F 92% 29.79 in 10.0 mi NNW 4.6 mph - N/A   Overcast
6:25 AM 26.1 °F 21.9 °F 24.1 °F 92% 29.79 in 10.0 mi NNW 3.5 mph - N/A   Overcast
6:53 AM 27.0 °F 21.6 °F 24.1 °F 89% 29.87 in 10.0 mi NW 4.6 mph - N/A   Overcast
7:53 AM 28.0 °F 20.8 °F 24.1 °F 85% 29.90 in 10.0 mi NW 6.9 mph - N/A   Overcast
8:53 AM 28.9 °F 21.1 °F 24.1 °F 82% 29.93 in 3.0 mi NNW 8.1 mph - 0.00 in Snow Light Snow
8:57 AM 28.9 °F 21.1 °F 25.0 °F 85% 29.86 in 1.8 mi NW 8.1 mph - 0.00 in Snow Light Snow
9:04 AM 28.9 °F 21.9 °F 26.1 °F 89% 29.86 in 1.2 mi NW 6.9 mph - 0.00 in Snow Light Snow
9:12 AM 28.9 °F 21.9 °F 26.1 °F 89% 29.86 in 1.8 mi NW 6.9 mph - 0.00 in Snow Light Snow
9:20 AM 28.9 °F 21.1 °F 26.1 °F 89% 29.86 in 2.5 mi NW 8.1 mph - 0.00 in Snow Light Snow
9:45 AM 30.0 °F 19.1 °F 26.1 °F 85% 29.88 in 3.0 mi NNW 15.0 mph - 0.00 in Snow Light Snow
9:53 AM 28.9 °F 17.7 °F 26.1 °F 89% 29.95 in 3.0 mi NW 15.0 mph - 0.00 in Snow Light Snow
10:53 AM 30.0 °F 19.5 °F 25.0 °F 82% 29.96 in 10.0 mi NW 13.8 mph - 0.00 in   Overcast
11:33 AM 30.9 °F 20.7 °F 26.1 °F 82% 29.91 in 10.0 mi NW 13.8 mph - N/A   Overcast
11:53 AM 30.9 °F 20.7 °F 26.1 °F 82% 29.98 in 10.0 mi NNW 13.8 mph - N/A   Overcast
12:31 PM 32.0 °F 21.2 °F 25.0 °F 75% 29.91 in 10.0 mi NW 16.1 mph - N/A   Mostly Cloudy
12:53 PM 32.0 °F 21.2 °F 25.0 °F 75% 29.98 in 10.0 mi NNW 16.1 mph - N/A   Mostly Cloudy
1:53 PM 33.1 °F 22.6 °F 24.1 °F 70% 29.99 in 10.0 mi NW 16.1 mph - N/A   Scattered Clouds
2:53 PM 34.0 °F 24.6 °F 23.0 °F 64% 30.01 in 10.0 mi NNW 13.8 mph - N/A   Partly Cloudy
3:53 PM 32.0 °F 22.5 °F 19.9 °F 61% 30.03 in 10.0 mi NW 12.7 mph - N/A   Clear
4:53 PM 28.0 °F 18.6 °F 18.0 °F 66% 30.05 in 10.0 mi NW 10.4 mph - N/A   Clear
5:53 PM 25.0 °F 16.3 °F 17.1 °F 72% 30.09 in 10.0 mi NW 8.1 mph - N/A   Clear
6:53 PM 23.0 °F 13.1 °F 16.0 °F 74% 30.11 in 10.0 mi NNW 9.2 mph - N/A   Clear
7:12 PM 24.1 °F 16.0 °F 17.1 °F 75% 30.04 in 10.0 mi NNW 6.9 mph - N/A   Mostly Cloudy
7:53 PM 21.9 °F 11.7 °F 16.0 °F 78% 30.13 in 10.0 mi North 9.2 mph - N/A   Mostly Cloudy
8:53 PM 21.0 °F 13.4 °F 16.0 °F 81% 30.14 in 10.0 mi North 5.8 mph - N/A   Overcast
9:53 PM 21.0 °F 10.6 °F 16.0 °F 81% 30.17 in 10.0 mi North 9.2 mph - N/A   Overcast
10:53 PM 19.9 °F 10.1 °F 15.1 °F 81% 30.19 in 10.0 mi North 8.1 mph - N/A   Overcast
11:38 PM 17.1 °F 7.6 °F 12.9 °F 84% 30.12 in 10.0 mi NNW 6.9 mph - N/A   Scattered Clouds
11:53 PM 15.1 °F 5.2 °F 10.9 °F 84% 30.20 in 10.0 mi North 6.9 mph - N/A   Partly Cloudy